sat.trackr.live / text

‹ back to catalog

STARLINK-4199

NORAD 52857 · 2022-062AD

PAYLOAD ACTIVE UNKNOWN

§ Identity

Operator
Country
US
Launch date
2022-06-17
Launch site
AFETR
Launch vehicle
Mass (kg)
RCS (m²)

Purposes: comms

External: N2YO · Heavens-Above · Gunter

§ Orbital elements

Epoch: 2026-05-25T02:55:53.639904Z

Period
95.44 min
Inclination
53.2123°
Eccentricity
0.0001337
Mean motion
15.08831691 rev/d
Perigee alt
538.8 km
Apogee alt
540.7 km
Semi-major
6,917.9 km
B*
1.0015e-4
RAAN
41.0009°
Arg perigee
87.8017°
Mean anomaly
272.3128°
Rev number
21,746

§ Raw data

STARLINK-41991 52857U 22062AD  26145.12214861  .00001306  00000+0  10015-3 0  99912 52857  53.2123  41.0009 0001337  87.8017 272.3128 15.08831691217461

JSON: /api/v1/satellites/52857 · /tle

For live sub-satellite position, see the globe view (requires WebGL).

§ Visibility from observer

Set your observer location to see the next 7 days of passes ≥ 10°. The values pass through the URL so the page stays shareable.

No JS? Fill the form by hand. The geolocation button needs JavaScript.